Terminal Aerodrome Forecast
Issued by NWS

Home | Current Version | Previous Version | Text Only | Print | Product List | Glossary On
Versions: 1 2 3 4 5 6 7 8 9 10 11 12 13 14 15
000
FTUS45 KRIW 301100
TAFJAC
TAF
KJAC 301127Z 3012/0112 21006KT P6SM VCSH SCT025 OVC035
      TEMPO 3012/3015 BKN025
     FM301500 VRB05KT 6SM -SHRA BR SCT012 OVC025
     FM301900 20012G18KT P6SM -SHRA VCTS BKN030CB BKN050
     FM010100 21005KT P6SM BKN050
     FM010900 VRB05KT P6SM VCSH SCT020 BKN040
      AMD LTD TO CLD VIS AND WIND=

USA.gov is the U.S. government's official web portal to all federal, state and local government web resources and services.